Location: Sungai Bunut
(2.6333°N, 113.7333°E)
Time: 11:02:22
(UTC+00:00)

Transit 2A Rocket - Pass Details

Date: 04 December 2023
Orbit: 590 x 905 km, 66.7° (Epoch: 01 March)

Event Time Altitude Azimuth Distance (km) Brightness Sun altitude
Rises 01:21:45 0° 303° (WNW) 3,028 7.6 41.0°
Reaches altitude 10° 01:25:14 10° 276° (W) 2,187 7.1 41.7°
Maximum altitude 01:27:32 13° 248° (WSW) 2,023 7.1 42.2°
Drops below altitude 10° 01:29:57 10° 220° (SW) 2,289 7.5 42.7°
Sets 01:33:48 0° 194° (SSW) 3,299 8.5 43.5°
